Location: Zagreb
(45.8000°N, 16.0000°E)
Time: 00:44:23
(UTC+01:00)

Transit 2A Rocket - Pass Details

Date: 04 October 2020
Orbit: 586 x 916 km, 66.7° (Epoch: 28 October)

Event Time Altitude Azimuth Distance (km) Brightness Sun altitude
Rises 16:08:18 0° 201° (SSW) 3,505 9.3 22.3°
Reaches altitude 10° 16:10:48 10° 199° (SSW) 2,586 8.7 21.9°
Maximum altitude 16:16:49 66° 118° (ESE) 996 5.8 21.0°
Drops below altitude 10° 16:22:50 10° 38° (NE) 2,584 7.3 20.1°
Sets 16:25:20 0° 36° (NE) 3,503 7.9 19.8°
